Wind_Speed
11 9 8 6 6 5 3 2 0 1 3 4 6 7 7 8 9 9 9 8 8 8 8 8 7 6 5 6 6 6 6 5 5 6 5 5 5 5 5 5 6 7 8 8
13 11 9 8 7 7 6 5 4 3 4 4 5 6 6 8 9 9 8 7 7 8 7 7 7 6 5 5 6 6 6 5 5 6 6 6 6 6 6 6 7 8 8 8
13 12 11 10 9 8 8 8 8 7 6 6 6 5 6 7 8 9 8 7 7 6 6 6 7 7 7 6 6 7 6 6 6 6 6 6 6 7 7 8 8 9 9 9
15 14 13 12 11 10 9 9 10 10 9 8 8 7 6 7 8 8 8 7 7 5 4 5 6 6 7 7 7 7 6 6 7 7 7 8 7 7 8 9 9 10 10 10
16 16 15 14 12 12 11 11 11 11 10 10 9 9 6 8 8 9 9 7 6 5 4 4 5 6 7 8 9 9 8 7 7 8 8 9 8 9 10 11 11 12 12 11
18 17 16 14 13 13 13 13 13 12 11 10 10 10 8 9 9 9 9 7 7 7 6 6 6 7 8 8 9 10 9 8 9 9 9 9 9 10 11 12 13 13 13 12
20 19 17 16 15 15 15 15 15 14 13 12 12 12 10 9 9 9 8 8 8 8 8 8 8 8 8 9 10 10 10 10 10 10 10 10 11 11 12 13 13 14 14 14
21 21 19 17 17 17 18 18 17 16 15 15 15 14 12 11 11 11 11 9 9 9 9 9 9 9 10 10 11 11 10 10 11 11 12 12 12 13 13 13 14 14 15 15
22 21 20 19 19 18 19 18 18 19 18 18 17 16 14 13 13 13 13 12 12 11 10 10 11 11 12 11 11 11 11 12 12 12 13 14 14 14 14 15 15 16 16 16
22 21 21 21 21 20 20 19 19 20 21 20 20 18 17 15 14 14 14 13 13 11 11 12 12 12 12 12 13 13 13 14 15 15 15 16 16 16 16 17 17 17 17 18
22 22 22 22 22 21 22 22 22 22 22 23 23 20 18 17 17 16 16 15 14 14 13 14 14 14 14 15 15 15 16 16 16 16 17 17 17 18 19 19 19 18 19 19
22 22 22 23 23 24 24 24 24 24 24 25 25 23 20 20 19 19 19 18 17 16 16 16 16 16 17 17 17 17 17 18 18 18 19 19 19 20 21 21 21 22 22 22
23 22 22 23 24 25 25 26 26 26 27 28 27 25 23 22 21 21 20 20 19 18 18 18 18 18 19 19 19 19 19 19 20 20 21 21 22 22 22 23 23 24 25 25
24 24 24 24 24 25 26 27 27 28 28 28 28 28 25 23 23 22 21 20 20 20 19 19 20 20 20 20 21 21 21 21 22 23 22 23 24 24 24 25 25 26 26 27
25 25 25 25 25 25 26 27 28 29 30 30 30 29 28 26 25 24 23 22 21 21 21 21 22 22 22 23 23 23 23 24 25 26 26 25 25 25 26 26 27 27 28 29
25 26 25 25 25 26 26 27 28 29 29 30 30 30 28 28 26 25 24 23 23 23 22 22 23 24 24 25 25 25 26 25 26 26 27 27 26 26 27 28 29 29 30 30
27 27 27 27 26 26 28 27 28 29 29 29 29 29 28 27 26 25 25 24 24 24 24 24 24 25 25 26 27 27 26 27 27 27 27 28 28 28 30 31 31 31 32 32
28 28 28 28 28 30 28 28 28 28 28 28 28 28 28 28 27 27 27 26 25 26 26 26 26 26 27 28 28 29 28 27 28 29 29 30 29 30 31 32 32 32 32 33
30 30 29 29 30 30 28 28 28 28 27 28 28 28 28 27 27 27 28 28 27 27 28 28 28 29 29 30 30 30 29 29 29 29 30 31 32 32 33 34 34 33 34 34
32 31 31 31 31 31 29 29 28 28 29 29 29 29 29 29 28 27 28 29 29 29 29 30 30 30 30 30 30 31 30 30 30 30 30 31 33 34 34 34 34 34 35 34
31 31 31 31 32 31 30 29 29 29 29 29 30 31 30 29 29 28 29 29 30 31 31 31 31 31 31 31 31 31 31 30 30 31 31 32 33 34 34 34 34 34 34 34
32 32 31 32 32 32 30 30 30 30 30 30 30 31 31 30 30 30 31 32 32 32 33 33 33 33 32 33 33 32 31 31 31 31 32 33 33 33 34 34 34 34 34 34
32 32 32 32 32 31 31 31 30 29 29 29 29 29 30 31 32 31 32 33 33 33 33 33 33 34 34 33 33 31 31 32 32 33 33 33 33 33 34 33 34 34 34 33
32 32 32 32 31 30 30 30 30 30 30 29 29 29 30 31 32 32 32 32 32 32 32 33 34 34 34 33 34 33 33 33 33 34 34 34 34 34 34 34 34 33 33 33
32 32 32 32 32 31 31 31 30 30 31 30 30 30 30 31 31 31 31 32 32 32 32 32 32 33 33 33 33 35 34 34 34 35 35 35 35 35 35 34 34 34 34 34
31 31 32 32 32 32 31 31 31 31 31 31 30 30 30 30 30 30 31 32 32 31 32 32 31 31 31 33 34 34 33 34 34 35 35 35 35 35 35 35 35 35 35 35
Wind_Direction
207 205 201 206 213 222 237 221 64 15 6 5 8 7 11 20 22 24 23 27 26 26 29 29 29 21 10 11 11 6 6 4 356 344 335 329 330 327 329 329 327 327 328 322
208 208 210 215 228 236 244 248 259 285 314 335 348 356 359 8 9 9 11 14 15 17 25 27 23 20 14 17 13 12 4 354 346 338 331 327 323 322 325 322 318 319 319 314
214 215 220 226 234 239 248 250 259 273 291 307 313 328 344 350 353 355 356 352 355 8 19 26 21 18 15 10 358 356 355 353 346 339 334 328 322 320 316 314 314 315 315 310
216 217 223 230 234 243 245 254 263 272 282 295 304 315 325 330 336 340 341 337 336 346 1 10 8 5 8 6 355 351 343 344 342 338 332 326 316 310 310 311 313 318 316 310
217 219 224 229 236 240 242 250 262 271 280 289 302 309 315 312 321 325 326 329 322 326 327 335 343 344 347 348 345 344 334 330 333 336 330 322 316 316 317 316 312 314 315 313
219 221 226 230 234 238 245 251 261 270 277 287 301 306 312 303 309 315 317 318 314 311 317 317 317 322 330 333 337 335 331 329 328 325 321 319 317 315 315 313 312 310 309 308
223 225 229 233 237 242 248 255 261 268 274 284 293 298 306 298 300 305 310 311 309 302 302 312 313 314 319 322 324 323 320 317 316 315 312 312 312 313 313 311 309 306 305 306
230 230 234 238 241 244 247 254 262 269 275 281 284 292 300 298 298 297 298 303 302 299 299 303 304 305 307 307 311 314 312 308 308 309 309 308 308 308 309 309 308 307 305 304
233 232 233 239 243 245 247 253 262 267 271 276 281 288 294 300 299 298 294 297 300 303 296 298 298 300 305 302 301 306 306 303 302 302 301 302 303 306 306 306 305 305 306 302
233 233 232 237 243 247 250 255 262 268 272 276 282 287 292 296 298 300 298 299 298 303 297 293 296 299 302 302 299 302 303 302 300 299 299 300 300 303 302 303 304 302 304 302
234 235 233 238 242 248 253 258 262 266 271 276 281 285 291 293 294 295 297 299 299 299 299 294 290 295 298 303 303 299 299 300 299 297 298 298 299 299 300 300 301 304 304 304
238 241 240 241 244 246 252 258 262 267 274 277 279 283 286 289 291 294 296 295 294 296 295 290 290 293 296 298 301 299 298 300 299 296 296 296 297 299 300 299 300 302 303 302
242 246 247 244 245 249 253 257 262 266 271 274 276 281 284 286 288 290 292 294 294 295 293 290 290 291 293 294 296 295 296 295 294 293 293 295 296 297 298 298 299 300 300 299
246 250 252 252 253 255 256 259 263 266 270 272 275 279 282 284 285 287 288 290 292 293 292 291 291 290 291 292 293 292 291 291 291 291 291 292 293 294 295 295 297 297 298 297
249 252 253 255 256 258 259 260 264 267 270 272 275 277 280 283 283 283 284 287 288 290 291 291 291 287 287 287 289 290 290 290 291 290 290 290 291 292 293 294 296 297 297 297
252 255 256 258 259 260 261 261 263 265 268 271 274 277 280 280 280 278 280 283 286 289 290 290 290 289 287 289 289 288 288 289 290 290 290 291 291 292 293 295 296 297 297 297
254 258 260 261 263 264 264 265 267 267 267 269 273 276 279 279 278 278 279 283 284 285 286 289 292 292 289 289 290 290 288 288 288 289 290 290 289 291 293 294 296 296 296 296
257 259 262 263 265 266 269 269 268 268 268 269 272 274 277 279 278 279 281 282 282 285 287 288 289 290 289 288 289 289 288 290 291 290 289 290 290 291 294 295 296 296 296 297
257 259 261 263 265 268 269 269 270 269 269 270 272 272 275 277 278 279 281 282 283 284 284 286 288 288 287 289 289 289 289 291 292 292 290 290 290 292 294 295 296 295 294 294
256 259 262 264 266 267 269 270 271 271 270 270 272 272 273 276 277 280 282 283 284 284 285 285 287 288 288 289 289 290 290 290 292 292 291 291 292 294 294 295 295 295 295 294
256 260 262 265 267 268 270 271 272 273 273 272 272 273 273 274 277 278 279 280 283 284 285 285 285 286 287 288 289 291 290 290 291 293 293 293 294 295 295 295 295 296 297 297
255 258 261 264 265 267 270 273 274 275 275 274 273 273 272 273 275 276 278 280 282 283 282 282 284 285 286 286 288 287 287 289 291 293 294 294 295 296 296 295 296 296 297 297
257 258 260 262 264 267 269 272 274 276 276 276 275 273 273 275 276 276 278 280 281 281 281 282 284 285 285 285 285 284 286 289 291 292 293 294 295 296 297 297 297 297 297 297
256 258 259 261 262 265 269 271 272 274 275 275 274 273 273 275 277 278 279 281 282 282 281 283 283 284 285 284 284 284 287 289 290 292 295 296 296 296 295 295 295 296 295 296
257 259 261 262 264 267 269 271 272 273 273 274 274 274 276 277 277 279 281 283 284 284 286 286 284 284 284 284 284 286 286 288 289 291 294 294 294 293 293 293 294 295 296 296
257 259 261 264 266 268 270 271 273 273 273 273 275 276 278 278 279 281 282 283 285 286 288 287 285 283 283 284 286 289 289 289 290 292 293 293 293 293 292 292 293 294 295 295
Height
5914 5916 5916 5917 5917 5918 5918 5918 5918 5918 5917 5916 5915 5914 5913 5911 5910 5909 5907 5906 5904 5903 5901 5900 5899 5898 5897 5896 5895 5894 5893 5893 5892 5892 5891 5890 5890 5889 5889 5888 5887 5886 5885 5884
5914 5915 5916 5916 5916 5917 5918 5918 5917 5917 5916 5916 5915 5914 5913 5912 5910 5909 5908 5906 5904 5903 5902 5900 5899 5898 5897 5896 5895 5894 5893 5892 5892 5891 5890 5889 5889 5888 5887 5886 5886 5885 5883 5882
5912 5914 5914 5915 5915 5916 5916 5916 5916 5916 5915 5915 5915 5914 5913 5912 5910 5909 5908 5906 5904 5903 5902 5901 5899 5898 5897 5896 5894 5893 5892 5891 5890 5890 5889 5888 5887 5887 5886 5885 5884 5883 5882 5880
5910 5912 5913 5913 5914 5915 5915 5915 5915 5915 5914 5914 5914 5913 5913 5911 5910 5909 5907 5906 5904 5902 5901 5900 5899 5898 5896 5895 5894 5892 5891 5890 5889 5888 5888 5887 5886 5885 5884 5883 5882 5881 5880 5878
5908 5909 5910 5911 5912 5913 5913 5913 5913 5913 5912 5912 5912 5912 5912 5910 5909 5908 5906 5905 5903 5902 5901 5900 5899 5898 5896 5894 5893 5891 5890 5889 5888 5887 5886 5885 5884 5884 5883 5882 5881 5880 5878 5876
5905 5907 5908 5909 5910 5911 5911 5912 5911 5911 5911 5911 5911 5910 5910 5909 5907 5906 5905 5903 5902 5901 5900 5899 5897 5896 5895 5894 5892 5891 5889 5888 5887 5886 5885 5884 5883 5882 5881 5880 5878 5877 5875 5873
5902 5904 5905 5907 5908 5909 5909 5910 5910 5909 5908 5909 5909 5908 5909 5907 5906 5905 5903 5902 5901 5900 5899 5898 5896 5895 5894 5892 5891 5890 5888 5887 5886 5885 5883 5882 5881 5879 5878 5877 5875 5874 5872 5870
5899 5901 5903 5904 5905 5906 5906 5907 5907 5907 5906 5906 5906 5905 5907 5905 5904 5903 5901 5900 5899 5898 5897 5896 5894 5893 5892 5890 5889 5887 5886 5885 5884 5882 5881 5880 5878 5877 5875 5874 5872 5871 5869 5867
5895 5898 5900 5900 5901 5902 5902 5903 5904 5903 5903 5903 5903 5903 5903 5902 5902 5900 5899 5898 5897 5896 5895 5894 5892 5891 5890 5888 5886 5884 5883 5882 5881 5880 5878 5877 5875 5874 5872 5871 5869 5867 5866 5864
5891 5894 5896 5896 5897 5898 5899 5900 5900 5899 5899 5898 5899 5899 5900 5899 5898 5897 5896 5895 5894 5893 5892 5891 5890 5889 5887 5885 5884 5882 5880 5879 5877 5876 5874 5873 5872 5870 5869 5867 5866 5864 5862 5860
5886 5889 5891 5892 5893 5894 5895 5896 5895 5895 5895 5895 5895 5897 5896 5895 5894 5894 5893 5892 5891 5890 5889 5888 5886 5885 5884 5882 5880 5879 5877 5875 5874 5872 5871 5869 5867 5866 5864 5863 5861 5859 5857 5855
5882 5884 5886 5887 5889 5889 5890 5890 5891 5891 5891 5891 5890 5894 5892 5891 5890 5890 5889 5888 5887 5886 5884 5883 5882 5881 5880 5878 5876 5875 5873 5871 5870 5868 5866 5865 5863 5861 5860 5858 5856 5854 5852 5850
5877 5879 5881 5882 5885 5885 5884 5885 5886 5886 5886 5886 5885 5889 5887 5887 5886 5885 5885 5884 5882 5881 5880 5879 5878 5877 5875 5873 5872 5870 5868 5867 5865 5863 5862 5860 5858 5856 5854 5852 5850 5848 5846 5844
5873 5874 5876 5878 5878 5879 5879 5880 5880 5881 5881 5880 5880 5881 5882 5881 5881 5880 5880 5879 5878 5876 5875 5874 5873 5871 5870 5869 5867 5865 5863 5862 5860 5858 5856 5854 5853 5851 5848 5846 5844 5842 5839 5837
5868 5869 5870 5871 5872 5873 5873 5874 5874 5875 5875 5875 5875 5875 5876 5875 5875 5875 5874 5873 5873 5872 5870 5869 5867 5866 5865 5863 5861 5860 5858 5856 5854 5852 5850 5848 5846 5844 5842 5839 5837 5834 5832 5829
5862 5863 5864 5865 5866 5866 5867 5868 5868 5868 5869 5869 5869 5869 5869 5869 5869 5869 5868 5867 5867 5866 5865 5863 5861 5860 5858 5857 5855 5853 5851 5849 5847 5845 5843 5841 5840 5837 5835 5832 5830 5827 5824 5822
5856 5857 5858 5859 5859 5859 5860 5861 5862 5862 5862 5863 5863 5863 5863 5863 5862 5862 5862 5861 5861 5860 5858 5857 5855 5853 5852 5850 5848 5846 5844 5842 5840 5838 5836 5834 5832 5830 5827 5825 5822 5819 5816 5814
5850 5851 5851 5852 5853 5853 5856 5855 5855 5855 5855 5856 5856 5856 5856 5856 5856 5856 5855 5854 5854 5853 5852 5850 5848 5846 5845 5843 5841 5839 5837 5835 5833 5831 5829 5826 5824 5822 5819 5816 5813 5811 5808 5805
5843 5844 5845 5845 5845 5846 5847 5847 5848 5848 5849 5849 5849 5849 5849 5849 5849 5849 5848 5847 5846 5846 5845 5843 5841 5839 5837 5835 5833 5831 5829 5826 5824 5822 5820 5818 5816 5813 5811 5808 5805 5802 5799 5796
5836 5837 5838 5838 5838 5839 5841 5841 5840 5841 5841 5842 5841 5841 5841 5841 5842 5842 5841 5840 5839 5838 5837 5835 5833 5831 5830 5827 5825 5823 5820 5818 5816 5814 5811 5809 5806 5804 5802 5799 5796 5793 5790 5787
5828 5829 5830 5830 5830 5831 5833 5833 5834 5835 5835 5834 5833 5833 5834 5834 5834 5834 5833 5832 5831 5829 5828 5826 5825 5823 5821 5819 5817 5815 5812 5810 5807 5805 5803 5800 5798 5795 5793 5790 5787 5784 5781 5778
5820 5821 5822 5823 5823 5825 5826 5826 5827 5827 5826 5825 5825 5825 5825 5825 5825 5825 5824 5823 5822 5821 5819 5817 5816 5814 5812 5810 5808 5806 5804 5802 5799 5797 5794 5792 5789 5786 5784 5781 5778 5775 5772 5769
5812 5814 5814 5815 5817 5817 5818 5818 5818 5818 5818 5817 5817 5817 5817 5816 5816 5816 5815 5814 5812 5811 5810 5808 5806 5805 5803 5801 5799 5797 5795 5793 5790 5788 5785 5782 5780 5777 5774 5772 5769 5766 5763 5760
5803 5805 5806 5807 5808 5809 5810 5810 5810 5810 5810 5809 5809 5808 5808 5808 5807 5806 5805 5804 5802 5801 5800 5798 5797 5795 5793 5792 5790 5788 5785 5783 5781 5779 5776 5773 5770 5767 5765 5762 5759 5756 5753 5751
5796 5797 5798 5799 5800 5801 5802 5802 5802 5802 5801 5801 5800 5800 5799 5798 5798 5797 5795 5794 5793 5792 5790 5788 5786 5785 5783 5782 5780 5778 5775 5773 5771 5769 5766 5763 5760 5758 5755 5752 5749 5747 5744 5741
5788 5789 5790 5791 5792 5793 5794 5793 5794 5793 5793 5793 5792 5791 5790 5789 5788 5787 5786 5785 5783 5782 5780 5778 5777 5775 5773 5771 5770 5767 5765 5763 5761 5758 5756 5753 5750 5748 5745 5742 5740 5737 5734 5731